Location: Le Plessis-Belleville
(49.0962°N, 2.7526°E)
Time: 11:29:38
(UTC+00:00)

Daily predictions for brighter satellites

Satellite Brightness Start Highest point End
(mag) Time Altitude Azimuth Time Altitude Azimuth Time Altitude Azimuth
Cosmos 2233 Rocket 4.0 18:27:17 10° S 18:33:23 74° E 18:39:33 10° NNE
Cosmos 1066 Rocket 4.4 18:27:35 10° N 18:33:27 65° ENE 18:39:13 10° SSE
Cosmos 1726 1.3 18:33:15 10° S 18:36:00 59° E 18:38:45 10° NNE
Resurs 1-3 3.6 18:32:35 10° SSE 18:36:52 63° ENE 18:41:10 10° N
SAR-Lupe-2 3.5 18:41:15 10° SSE 18:44:49 82° ENE 18:48:25 10° NNW
Cosmos 1315 Rocket 4.4 18:43:45 10° NNE 18:46:31 18° ENE 18:49:14 10° ESE
Meteor PRIRODA 3.3 18:46:20 10° SSE 18:49:35 64° ENE 18:52:52 10° N
ATLAS 2AS CENTAUR R/B 4.3 18:43:27 10° W 18:49:53 34° NNW 18:56:07 10° NE
Cosmos 1125 Rocket 4.1 18:45:33 10° N 18:50:24 38° ENE 18:55:14 10° SE
Cosmos 1842 3.3 18:48:25 10° N 18:51:56 47° ENE 18:55:26 10° SSE
USA 59 Rocket 0.2 18:49:41 10° NW 18:53:29 78° SW 18:58:42 10° SE
Cosmos 1536 3.7 18:51:01 10° SSE 18:54:14 27° E 18:57:30 10° NNE
Okean 3 Rocket 4.3 18:50:42 10° SSE 18:54:41 33° E 18:58:40 10° NNE
Cosmos 2061 Rocket 4.4 18:49:02 10° SSW 18:55:28 76° W 19:01:56 10° N
COSMOS 2428 2.7 18:50:03 10° SSW 18:55:42 70° ESE 19:01:26 10° NNE
Cosmos 1707 2.9 18:52:20 10° N 18:55:45 42° ENE 18:59:08 10° SSE
Cosmos 1515 Rocket 4.1 18:51:55 10° N 18:55:57 36° ENE 19:00:00 10° SE
Cosmos 1818 3.9 18:55:26 10° SW 19:00:53 71° NW 19:06:24 10° NE
Okean O Rocket 2.6 18:57:42 11° ESE 19:01:18 29° ENE 19:05:07 10° N
Cosmos 2278 Rocket 2.2 19:00:46 10° NNW 19:06:29 76° ENE 19:12:08 10° SSE
USA 306 2.3 19:04:36 10° WSW 19:07:41 79° NNW 19:11:20 10° ENE
CZ-4B DEB 4.3 19:03:35 10° SSE 19:09:07 88° WSW 19:14:39 10° NNW
CZ-4 R/B 1.2 19:06:18 10° SSE 19:10:07 82° ENE 19:14:02 10° NNW
CZ-4B R/B 3.2 19:08:16 10° SSE 19:13:37 61° ENE 19:18:55 10° N
NOSS 2-1 (C) 4.2 19:10:06 10° NW 19:13:49 52° SW 19:18:52 10° SSE
Cosmos 1766 Rocket 3.6 19:09:54 10° S 19:14:16 88° WNW 19:18:42 10° N
Resurs 01 Rocket 1.6 19:11:18 10° SSE 19:15:40 65° ENE 19:20:05 10° N
Meteor 2-17 Rocket 4.4 19:09:50 10° N 19:15:55 77° E 19:21:59 10° SSE
Helios 1A 2.8 19:12:30 10° NNE 19:16:36 83° ESE 19:20:39 10° SSW
USA 290 2.5 19:13:37 10° NNW 19:16:55 70° WSW 19:20:11 10° SSE
ADEOS 4.1 19:13:11 10° S 19:18:20 61° WSW 19:23:32 10° NNW
GEOS 3 Rocket 3.7 19:13:39 10° SE 19:18:54 79° SW 19:24:06 10° NW
USA 186 1.7 19:17:46 10° SSE 19:20:57 76° ENE 19:24:12 10° N
CZ-4B R/B 4.1 19:16:33 10° S 19:21:11 54° WSW 19:25:56 10° NNW
Cosmos 1814 Rocket 4.1 19:16:44 10° SSW 19:22:02 84° WNW 19:27:19 10° NNE
PAYLOAD B 4.3 19:16:38 10° SSE 19:22:14 89° WSW 19:27:54 10° NNW
Cosmos 2360 Rocket 4.4 19:17:45 10° W 19:22:25 26° NW 19:27:08 10° NNE
KORONAS-FOTON 4.0 19:19:08 10° NNW 19:22:50 69° W 19:26:29 10° S
MOS 1-B 4.4 19:17:50 10° SSE 19:23:31 60° ENE 19:29:12 10° N
SPOT 5 3.8 19:22:14 19° ESE 19:24:20 27° ENE 19:28:05 10° N
Okean-O 3.6 19:23:04 20° ESE 19:25:05 29° ENE 19:28:53 10° N
USA 267 4.1 19:21:30 10° ENE 19:27:38 45° N 19:33:47 10° WNW
Cosmos 1408 Rocket 3.9 19:24:17 10° SSE 19:28:23 41° E 19:32:33 10° NNE
ISS -3.4 19:26:15 10° SW 19:29:27 44° SSE 19:30:43 29° E
SPOT 1/Viking Rocket 4.4 19:24:29 10° S 19:29:31 52° W 19:34:34 10° NNW
NOSS 3-3 (A) 4.3 19:25:07 10° S 19:29:55 34° ESE 19:35:23 10° NE
CZ-4B R/B 3.3 19:26:23 10° S 19:30:13 63° WSW 19:34:16 10° NNW
Kosmos-1783 4.5 19:30:19 10° WSW 19:32:05 23° NW 19:33:12 13° N
SL-08 R/B 4.1 19:28:17 10° N 19:33:08 59° WNW 19:37:57 10° SSW
Cosmos 2237 Rocket 2.2 19:29:14 10° S 19:34:44 59° ESE 19:40:15 10° NE
CSL-04 Rocket 3.6 19:32:03 10° SSE 19:37:25 84° ENE 19:42:44 10° NNW
Aureole 3 Rocket 4.1 19:31:06 10° SSE 19:37:26 43° E 19:42:05 10° NNE
Cosmos 2219 Rocket 4.1 19:34:36 10° WSW 19:39:40 33° NW 19:44:46 10° NNE
Cosmos 1356 Rocket 4.0 19:38:42 10° NNW 19:42:50 58° W 19:46:55 10° S
Meteor 1-14 Rocket 4.5 19:37:58 10° SSW 19:43:28 70° WNW 19:49:02 10° N
Lacrosse 4 Rocket 4.2 19:42:01 10° WNW 19:44:31 15° WSW 19:47:00 10° SW
Meteor 1-4 Rocket 4.4 19:43:40 10° NW 19:45:47 21° W 19:47:53 10° SSW
IKONOS-2 4.4 19:42:19 10° NNE 19:46:25 56° E 19:50:24 10° S
Meteor 1-11 Rocket 3.6 19:40:52 10° S 19:46:27 70° E 19:51:58 10° NNE
MOS 1 Rocket 4.2 19:45:38 28° ESE 19:47:35 38° ENE 19:52:27 10° N
CARTOSAT-1 4.1 19:46:33 10° S 19:50:43 57° W 19:54:57 10° NNW
Cosmos 158 Rocket 3.7 19:46:51 10° S 19:51:40 63° ESE 19:56:29 10° NNE
ATLAS CENTAUR R/B 0.9 19:48:12 10° SSW 19:51:42 59° SE 19:54:53 13° NE
NOSS 3-4 (A) 4.3 19:46:47 10° NW 19:53:05 46° NE 19:57:11 24° E
NOSS 3-4 (C) 4.3 19:46:54 10° NW 19:53:12 46° NE 19:57:18 24° E
Cosmos 1805 Rocket 3.6 19:52:47 31° SSE 19:54:29 50° E 19:58:42 10° NNE
Cosmos 1428 Rocket 4.4 19:51:54 10° N 19:58:02 75° E 20:02:18 21° SSE
Cosmos 1733 3.4 19:55:25 10° SSW 19:58:48 61° WNW 20:02:13 10° N
In-Cosmos 22 4.5 19:55:03 10° NNW 20:00:44 70° W 20:06:00 11° S
USA 276 3.4 19:58:27 10° W 20:00:38 26° SW 20:00:38 26° SW
Cosmos 2369 Rocket 3.1 19:58:11 10° NNW 20:03:24 35° NE 20:05:12 28° E
SL-24 R/B 4.5 20:01:56 36° SE 20:03:35 54° E 20:08:17 10° N
Cosmos 1980 3.7 19:58:35 10° SSW 20:04:16 82° WNW 20:10:00 10° NNE
Meteor 1-21 4.4 20:02:37 10° N 20:08:18 57° ENE 20:10:23 37° SE
Sich 1 2.8 20:07:33 29° S 20:09:39 77° E 20:13:59 10° NNE
Cosmos 1943 Rocket 2.7 20:05:07 10° NW 20:10:30 54° WSW 20:14:05 21° S
Cosmos 1707 Rocket 4.3 20:07:04 10° N 20:11:05 36° ENE 20:11:05 36° ENE
DELTA 2 DEB (DPAF) 4.1 20:07:59 10° NNE 20:11:47 50° E 20:11:47 50° E
NOSS 0 Rocket 4.5 20:06:44 10° SW 20:12:54 61° NW 20:19:07 10° NNE
Terra 2.3 20:13:52 40° E 20:14:17 41° ENE 20:18:42 10° N
Cosmos 2298 Rocket 3.9 20:09:04 10° NNW 20:14:23 90° NE 20:16:27 39° SSE
ACS3 Solar Sail 2.0 20:09:36 16° S 20:14:57 76° WSW 20:21:24 10° NNW
ERS-1 Rocket 3.2 20:14:04 44° ESE 20:15:02 50° ENE 20:19:54 10° N
Nadezhda 4 Rocket 4.4 20:09:09 10° NNW 20:15:20 63° W 20:21:32 10° S
Cosmos 2195 Rocket 4.4 20:09:23 10° N 20:15:33 88° E 20:19:12 26° S
Cosmos 2150 Rocket 3.9 20:10:54 10° NNW 20:16:05 88° WSW 20:17:56 41° SSE
USA 32 4.0 20:11:28 10° N 20:16:45 89° W 20:19:24 30° S
Cosmos 1570 Rocket 4.2 20:11:40 10° SSW 20:16:57 74° WNW 20:22:14 10° NNE
Cosmos 1975 3.5 20:18:58 39° NE 20:18:58 39° NE 20:21:44 10° NNE
Cosmos 1805 3.1 20:21:37 70° SW 20:21:57 79° W 20:25:37 10° N
Cosmos 1315 Rocket 3.7 20:19:01 10° NNW 20:22:50 46° W 20:24:27 29° SSW
Cosmos 2026 Rocket 3.9 20:16:37 10° N 20:22:54 85° E 20:25:51 33° SSE
Cosmos 1092 Rocket 3.9 20:17:01 10° N 20:23:23 83° E 20:26:29 33° SSE
Ariane Rocket 3.6 20:24:21 38° ENE 20:24:38 38° ENE 20:29:18 10° N
Meteor 2-12 Rocket 4.4 20:20:31 10° N 20:26:42 75° ENE 20:28:55 42° SSE
Cosmos 836 Rocket 4.4 20:22:09 10° SSW 20:27:27 88° WNW 20:32:47 10° NNE
IRS-1A Rocket 4.2 20:26:27 45° SE 20:28:15 74° ENE 20:33:57 10° NNW
Okean 3 4.2 20:29:36 10° N 20:32:45 40° NE 20:32:45 40° NE
SL-16 R/B 2.2 20:35:16 55° ESE 20:35:16 55° ESE 20:40:40 10° NE
Okean O Rocket 3.0 20:35:02 21° SSW 20:37:27 36° W 20:41:34 10° NNW
Cosmos 1634 Rocket 3.9 20:36:32 36° S 20:39:16 77° E 20:45:37 10° NNE
Cosmos 1656 Rocket 3.6 20:34:46 10° NNW 20:40:28 76° ENE 20:41:19 63° ESE
SL-14 R/B 3.8 20:36:48 10° NNW 20:40:30 51° W 20:40:36 51° WSW
USA 306 3.7 20:37:21 10° WNW 20:40:35 38° N 20:40:35 38° N
USA 59 Rocket 3.0 20:41:02 10° W 20:42:47 12° WSW 20:44:45 10° SW
IRS-1C Rocket 4.0 20:45:02 65° SSE 20:45:51 90° WSW 20:51:11 10° NNW
Cosmos 773 Rocket 3.9 20:45:39 43° SSW 20:47:29 89° ESE 20:52:48 10° NNE
Cosmos 2278 Rocket 4.4 20:45:57 10° NW 20:49:54 20° W 20:53:50 10° SW
Okean 1-7 4.3 20:46:00 10° N 20:48:39 30° NNE 20:48:39 30° NNE
Cosmos 2263 4.4 20:45:57 10° NNW 20:51:36 54° NE 20:51:55 53° ENE
Resurs 01 Rocket 4.3 20:49:49 10° SW 20:52:32 16° W 20:55:14 10° NW
Cosmos 2228 Rocket 3.2 20:51:03 10° NNW 20:55:20 75° NW 20:55:20 75° NW
SPOT 3 Rocket 3.5 21:00:55 70° NE 21:00:55 70° NE 21:05:46 10° N
Okean-O 3.9 21:00:31 32° WSW 21:01:21 35° W 21:05:25 10° NNW
SPOT 5 3.8 21:01:23 35° SW 21:02:13 39° W 21:06:25 10° NNW
Cosmos 2142 Rocket 4.4 21:02:36 66° E 21:02:36 66° E 21:08:39 10° NNE
NOSS 3-3 (C) 4.1 21:00:39 10° SW 21:06:07 68° NW 21:12:41 10° NE
ISS -1.0 21:02:54 10° W 21:03:42 16° W 21:03:42 16° W
USA 267 3.5 21:08:22 47° ENE 21:10:06 62° NNE 21:16:32 10° WNW
Cosmos 724 4.4 21:15:30 63° NE 21:15:30 63° NE 21:20:21 10° NE
Cosmos 2180 Rocket 4.4 21:17:01 73° E 21:17:01 73° E 21:23:16 10° NNE
Cosmos 2237 Rocket 4.0 21:14:15 10° WSW 21:19:08 30° NW 21:24:04 10° NNE
NOSS 3-3 (A) 4.4 21:14:59 10° WSW 21:20:26 55° NW 21:26:55 10° NE
Cosmos 2279 Rocket 3.9 21:19:59 67° SW 21:20:49 80° W 21:27:06 10° N
Cosmos 1607 4.0 21:17:59 10° SW 21:24:28 78° NW 21:30:56 10° NE
Cosmos 2297 4.1 21:23:41 10° NW 21:28:59 55° WSW 21:28:59 55° WSW
ATLAS CENTAUR R/B 3.5 21:26:31 10° W 21:29:25 22° NNW 21:29:51 21° NNW
Spot 2 Rocket 4.1 21:31:06 51° W 21:31:06 51° W 21:35:35 10° NNW
NOSS 3-4 (A) 4.0 21:37:33 10° NW 21:44:18 61° SW 21:44:37 60° SW
NOSS 3-4 (C) 4.0 21:37:40 10° NW 21:44:25 61° SW 21:44:43 61° SW
Cosmos 2369 Rocket 2.9 21:42:07 10° NW 21:46:58 47° W 21:46:58 47° W
Terra 3.6 21:52:34 26° W 21:52:34 26° W 21:56:00 10° NW
ACS3 Solar Sail 4.3 21:56:40 10° WSW 22:00:03 15° W 22:03:27 10° NW
Ariane Rocket 4.5 22:04:30 31° WNW 22:04:30 31° WNW 22:08:09 10° NNW
Cosmos 2266 Rocket 4.5 22:04:03 10° NNW 22:09:40 54° WNW 22:09:40 54° WNW
SL-16 R/B 3.8 22:17:00 22° W 22:19:32 32° NW 22:24:36 10° NNE
ATLAS 2AS CENTAUR R/B 3.7 22:29:25 10° NW 22:35:48 37° NNE 22:36:30 36° NE
USA 267 4.2 22:55:43 37° WNW 22:55:43 37° WNW 22:59:37 10° WNW
Cosmos 1697 Rocket 4.3 22:48:48 10° NNW 22:52:28 29° NNE 22:52:28 29° NNE
Cosmos 2344 3.9 23:19:31 10° NW 23:27:15 81° WNW 23:27:15 81° WNW
Cosmos 1980 Rocket 3.8 23:49:00 10° NNW 23:52:13 30° N 23:52:13 30° N
